Regional Weather Roundup
Issued by NWS

Home | Current Version | Previous Version | Graphics & Text | Print | Product List | Glossary On
Versions: 1 2 3 4 5 6 7 8 9 10 11 12 13 14 15 16 17 18 19 20 21 22 23 24 25 26 27 28 29 30 31 32 33 34 35 36 37 38 39 40 41 42 43 44 45 46 47 48 49 50
000
ASUS43 KMKX 260600
RWRWI

WISCONSIN REGIONAL WEATHER ROUNDUP
NATIONAL WEATHER SERVICE MILWAUKEE/SULLIVAN WI
1200 AM CST SUN FEB 26 2017

NOTE: "FAIR" INDICATES FEW OR NO CLOUDS BELOW 12,000 FEET WITH NO
SIGNIFICANT WEATHER AND/OR OBSTRUCTIONS TO VISIBILITY.

WIZ001-002-006>008-014>016-023>028-260700-
NORTHWEST WISCONSIN

CITY           SKY/WX    TMP DP  RH WIND       PRES   REMARKS
SUPERIOR ARPT  LGT SNOW  27  26  99 CALM      29.73F
ASHLAND        PTCLDY    25  17  72 S7        29.74F WCI  17
6HR MIN TEMP:  21; 6HR MAX TEMP:  28; 6HR PCP: TRACE;

HAYWARD        CLOUDY    26  18  71 SW9       29.75F WCI  17
6HR MIN TEMP:  25; 6HR MAX TEMP:  28;

SIREN          CLOUDY    27  18  69 SW8G18    29.77S WCI  19
CUMBERLAND     CLOUDY    23  16  74 S14       29.78F WCI  11
RICE LAKE      CLOUDY    23  15  71 S10G17    29.82F WCI  12
CHETEK         CLOUDY    22  15  73 S8        29.82F WCI  12
LADYSMITH      CLOUDY    22  16  78 S8        29.82F WCI  12
EAU CLAIRE     NOT AVBL
MENOMONIE      CLOUDY    21  13  70 S3        29.86S
NEW RICHMOND   CLOUDY    22  15  74 S14G20    29.82S WCI   9
OSCEOLA        MOCLDY    25  18  74 S8        29.84S WCI  16
$$

WIZ003>005-009-010-017-018-260700-
NORTH CENTRAL WISCONSIN

CITY           SKY/WX    TMP DP  RH WIND       PRES   REMARKS
MANITOWISH WTR CLEAR     17  11  78 S7        29.75S WCI   7
ARBOR VITAE    PTCLDY    18  12  76 S6          N/A  WCI  10
WOODRUFF       PTCLDY    18  12  76 S6          N/A  WCI  10
RHINELANDER    MOCLDY    17   9  70 SW8       29.79F WCI   7
6HR MIN TEMP:  14; 6HR MAX TEMP:  19;

EAGLE RIVER    MOCLDY    17   9  71 SW6       29.77S WCI   9
LAND O LAKES   CLOUDY    17  11  78 S3        29.77F
PHILLIPS       CLOUDY    19  15  82 SW8       29.77F WCI   9
TOMAHAWK       CLOUDY    17  11  78 SW3       29.81F
MEDFORD        CLOUDY    16  11  79 SW12      29.81F WCI   3
MERRILL        NOT AVBL
$$

WIZ029-030-035-036-043>047-260700-
CENTRAL WISCONSIN

CITY           SKY/WX    TMP DP  RH WIND       PRES   REMARKS
WAUSAU         CLOUDY    17  11  77 S6        29.85F WCI   9
6HR MIN TEMP:  17; 6HR MAX TEMP:  22;

MOSINEE        CLOUDY    18  12  79 S10       29.87F WCI   6
MARSHFIELD     MOCLDY    17  11  77 SW12      29.86S WCI   4
6HR MIN TEMP:  17; 6HR MAX TEMP:  20;

STEVENS POINT  CLEAR     10   6  83 S5        29.90F WCI   2
WAUPACA        CLEAR     14   9  79 CALM      29.93F
WAUTOMA        PTCLDY    15  10  80 SW5       29.94  WCI   8
6HR MIN TEMP:  13; 6HR MAX TEMP:  18;

WISC RAPIDS    MOCLDY    18  12  77 SW10      29.91F WCI   6
6HR MIN TEMP:  16; 6HR MAX TEMP:  22;

CAMP DOUGLAS   NOT AVBL
$$

WIZ011>013-019>022-031-037>040-048>050-260700-
NORTHEAST WISCONSIN

CITY           SKY/WX    TMP DP  RH WIND       PRES   REMARKS
ANTIGO         CLEAR     13   8  78 SW9       29.83F WCI   1
SHAWANO        CLEAR     17  10  72 CALM      29.91S
6HR MIN TEMP:  17; 6HR MAX TEMP:  22;

OCONTO         CLEAR     18   8  65 W8        29.91S WCI   8
STURGEON BAY   CLEAR     18  10  71 SW12      29.91F WCI   5
6HR MIN TEMP:  16; 6HR MAX TEMP:  20;

GREEN BAY      CLEAR     19  11  70 SW7       29.93S WCI  10
6HR MIN TEMP:  19; 6HR MAX TEMP:  21;

MANITOWOC      NOT AVBL
APPLETON       CLEAR     19  10  68 SW10      29.92S WCI   8
CLINTONVILLE   PTCLDY    12   7  79 SW5       29.91S WCI   4
OSHKOSH        CLEAR     18  10  71 SW8       29.94S WCI   8
6HR MIN TEMP:  18; 6HR MAX TEMP:  20;

$$

WIZ032>034-041-042-053>061-260700-
SOUTHWEST WISCONSIN

CITY           SKY/WX    TMP DP  RH WIND       PRES   REMARKS
LA CROSSE      CLOUDY    24  15  68 S8        29.93F WCI  15
6HR MIN TEMP:  22; 6HR MAX TEMP:  26;

SPARTA         CLOUDY    21  14  74 S7        29.94F WCI  12
VIROQUA        CLOUDY    21  15  78 SW9       29.92F WCI  10
BOSCOBEL       CLOUDY    22  15  75 SW6       29.99F WCI  14
6HR MIN TEMP:  20; 6HR MAX TEMP:  26;

PRAIRIE DU CHI MOCLDY    24  16  69 S3        29.98F
PLATTEVILLE    CLOUDY    22  19  89 S5        29.99F WCI  16
$$

WIZ056-057-062-063-064-067-068-260700-
SOUTH CENTRAL WISCONSIN

CITY           SKY/WX    TMP DP  RH WIND       PRES   REMARKS
REEDSBURG      CLOUDY    19  13  77 S7        29.95F WCI  10
6HR MIN TEMP:  19; 6HR MAX TEMP:  23;

BARABOO/DELLS  CLOUDY    19  13  76 SW6       29.95F WCI  11
LONE ROCK      NOT AVBL
MINERAL POINT  MOCLDY    23  19  86 S3        29.97S
MADISON        MOCLDY    20  14  77 CALM      29.98F
6HR MIN TEMP:  19; 6HR MAX TEMP:  22;

MIDDLETON      MOCLDY    19  14  82 CALM      29.98F
WATERTOWN      CLEAR     19  14  81 SW3       29.98F
MONROE         CLOUDY    21  18  86 S6        29.98S WCI  14
JANESVILLE     CLEAR     21  16  79 CALM      30.01S
$$

WIZ051-052-058>065-066-070>072-260700-
SOUTHEAST WISCONSIN

CITY           SKY/WX    TMP DP  RH WIND       PRES   REMARKS
MILWAUKEE      PTCLDY    24  12  60 W8        30.00S WCI  15
6HR MIN TEMP:  24; 6HR MAX TEMP:  24;

WAUKESHA       CLEAR     19  12  73 SW7       30.00S WCI  10
MILWAUKEE/TIMM PTCLDY    21  12  68 W9        30.00S WCI  11
RACINE         CLOUDY    23  13  65 W7        30.02S WCI  15
6HR MIN TEMP:  22; 6HR MAX TEMP:  23;

KENOSHA        CLEAR     23  14  68 W8        30.01S WCI  14
6HR MIN TEMP:  21; 6HR MAX TEMP:  23;

FOND DU LAC    CLEAR     19  10  68 SW10      29.96F WCI   7
6HR MIN TEMP:  15; 6HR MAX TEMP:  21;

SHEBOYGAN      CLEAR     19  10  68 W12       29.95F WCI   7
6HR MIN TEMP:  18; 6HR MAX TEMP:  20;

WEST BEND      CLOUDY    19  14  79 W3        29.97S
JUNEAU         CLEAR     16  12  84 SW5       29.98F WCI   9
$$

LSZ147-162-260700-
LAKE SUPERIOR

STATION/POSITION TIME  TEMP    WIND        PRES    WAVE
                       AIR SEA DIR/SP/G            HT/PER
                 (UTC) (F)     (DEG/KT/KT) (MB)    (FT/S)
DEVILS ISLAND    0500   29     230/ 17/ 21 1008.0S
PORT WING        0540   26      CALM  /  2 1007.5F
SAXON HARBOR     0540   26     190/  4/  8 1007.5F
$$

LMZ867-665-643>646-260700-
LAKE MICHIGAN

STATION/POSITION TIME  TEMP    WIND        PRES    WAVE
                       AIR SEA DIR/SP/G            HT/PER
                 (UTC) (F)     (DEG/KT/KT) (MB)    (FT/S)
NORTHPORT PIER   0540   20        CALM     1012.2S
SISTER BAY       0505   20        CALM       N/A
KEWAUNEE LAKESHO 0530   21     270/ 12/ 17 1013.0F
SHEBOYGAN LAKESH 0500   21     260/ 11/ 13 1015.6R
PORT WASHINGTON  0540   22     260/  4/  9 1016.3F
MILWAUKEE LAKESH 0530   25     270/  9/ 12   N/A
KENOSHA   LAKESH 0500   24     270/  8/ 12 1016.6
$$

TC  - TEMPERATURE IN CELSIUS
VSB - VISIBILITY IN STATUTE MILES
WCI - WIND CHILL INDEX
HX  - HEAT INDEX




USA.gov is the U.S. government's official web portal to all federal, state and local government web resources and services.